Portada
METAR-TAF:

METAR-TAF

Aeroports :

Telfer, Austràlia

latitud: 21-42-54S, longitud: 122-13-43E, altitud: 296 m

Observació

L'informe es va fer fa 20 minuts, a les 16:00 UTC
Vent 20 kt del Sud/Sud-Est
Temperatura 22°C
Humitat 27%
Pressió 1016 hPa
Visibilitat 10 km o més

METAR: YTEF 201600Z AUTO 15020KT 9999 // NCD 22/02 Q1016

Hora: 00:20 (16:20 UTC)


TAF: manca

Observacions i pronòstics meteorològics de més de 4000 aeroports (METAR i TAF).

Les estacions disponibles són els punts grocs i vermells al mapa.

Posi el ratolí al punt desitjat per veure el nom de l'estació.

Feu clic per veure les observacions i els pronòstics meteorològics.

Per canviar el mapa: feu clic els botons verds amb una creu de color negre per apropar; al botó verd amb un guió per allunyar la imatge; o en les fletxes verdes per a mapes adjacents.


METAR-TAF: